National Weather Service Hourly Weather Roundup
NOAA NWS Hourly Roundups by Site
NOAA NWS Hourly Roundups by Site
Regional Weather Roundup for Sacramento, CA

To Select Another Site Choose from List

Select Site:  

417
ASUS46 KSTO 191715
RWRCA

NORTHERN AND CENTRAL CA REGIONAL WEATHER ROUNDUP
NATIONAL WEATHER SERVICE SACRAMENTO CA
1000 AM PDT THU SEP 19 2019

NOTE: FAIR INDICATES FEW OR NO CLOUDS BELOW 12,000 FEET WITH NO
SIGNIFICANT WEATHER AND/OR OBSTRUCTIONS TO VISIBILITY.

CAZ001-003-191800-
NORTHWEST AREA

CITY           SKY/WX    TMP DP  RH WIND       PRES   REMARKS
CRESCENT CITY  SUNNY     60  54  80 N8        30.06S
UKIAH          SUNNY     62  49  62 MISG      30.00S
$$

CAZ006-505>513-191800-
BAY AREA

CITY           SKY/WX    TMP DP  RH WIND       PRES   REMARKS
SANTA ROSA     SUNNY     66  52  60 N10       29.97S
SAN RAFAEL     N/A       MM  MM  MM MISG
NAPA           SUNNY     63  52  67 N5        29.97R
CONCORD        SUNNY     67  51  56 W6        29.97R
OAKLAND CITY   N/A       62  MM  MM MISG
OAKLAND        MOSUNNY   65  55  70 SW5       29.98R
SAN FRAN CITY  N/A       61  MM  75 MISG
SAN FRAN ARPT  MOSUNNY   67  54  63 NE3       29.97S
LIVERMORE      SUNNY     64  54  69 VRB3      29.97S
HAYWARD        MOSUNNY   66  54  65 VRB3      29.97S
REDWOOD CITY   N/A       66  MM  64 MISG
MOFFETT ARPT     N/A    N/A N/A N/A MISG      29.98R
SAN JOSE ARPT  MOSUNNY   65  54  67 CALM      29.97S
$$
CAZ034-037-514>518-191800-
CENTRAL COAST

CITY           SKY/WX    TMP DP  RH WIND       PRES   REMARKS
SALINAS        SUNNY     65  53  65 NW7       29.98R
MONTEREY       MOSUNNY   67  53  61 W6        29.99R
SAN LUIS OBISP SUNNY     72  49  44 NW13      29.94S
SANTA MARIA    SUNNY     66  56  70 W6        29.95S
$$
CAZ015-016-191800-
NORTHERN SACRAMENTO VALLEY

CITY           SKY/WX    TMP DP  RH WIND       PRES   REMARKS
REDDING        SUNNY     65  51  60 NW6       29.96S
RED BLUFF      SUNNY     65  51  60 NW14      29.97S
OROVILLE       SUNNY     62  49  62 CALM      29.98R
$$
CAZ016>018-191800-
SOUTHERN SACRAMENTO VALLEY

CITY           SKY/WX    TMP DP  RH WIND       PRES   REMARKS
AUBURN         SUNNY     63  46  55 CALM      29.97S
BEALE AFB      SUNNY     62  51  66 NW7       29.95R
LINCOLN        FAIR      63  50  63 NW3       29.96R
MARYSVILLE     SUNNY     63  50  62 NW6       29.97R
SAC INTL ARPT  SUNNY     64  52  64 N9        29.96R
MATHER AIRPORT SUNNY     63  50  63 NW7       29.95
DOWNTOWN SAC   N/A       65  MM  MM MISG
SAC EXEC ARPT  SUNNY     66  50  56 N7        29.96S
VACAVILLE      SUNNY     67  52  58 CALM      29.98R
TRAVIS AFB     SUNNY     70  54  56 CALM      29.97R
$$
CAZ019>021-191800-
SAN JOAQUIN VALLEY

CITY           SKY/WX    TMP DP  RH WIND       PRES   REMARKS
STOCKTON       SUNNY     68  53  58 NW12      29.95S
MODESTO        SUNNY     67  51  56 NW15      29.94S
MERCED         SUNNY     67  53  61 NW14      29.93S
LEMOORE        MOSUNNY   71  50  47 NW17      29.95R
FRESNO         MOSUNNY   67  53  61 NW8       29.95R
HANFORD        SUNNY     70  52  52 NW12      29.95R
PORTERVILLE      N/A    N/A N/A N/A MISG        N/A
BAKERSFIELD    SUNNY     69  51  52 N9        29.95S
$$
CAZ011-012-071-191800-
NORTHERN MOUNTAINS

CITY           SKY/WX    TMP DP  RH WIND       PRES   REMARKS
YREKA          SUNNY     57  47  69 N13       30.06S
MOUNT SHASTA   CLOUDY    48  45  89 CALM      30.02S
ALTURAS        PTSUNNY   50  43  77 N10       30.01R
$$
CAZ011-012-071-191800-
SIERRA NEVADA MTNS

CITY           SKY/WX    TMP DP  RH WIND       PRES   REMARKS
BLUE CANYON    MOSUNNY   45  42  89 S5        30.03R
TRUCKEE        PTSUNNY   39  37  93 CALM      30.02R
TAHOE VLY ARPT PTSUNNY   48  32  53 S8        30.00R
MAMMOTH LAKES  FAIR      52  29  40 NW16G28   30.00F
$$



 

View Past Reports for Sacramento, CA.

Products Courtesy of NOAA-NWS
NWS Information Parsing Script by Ken True at Saratoga Weather - Script by SE Lincoln Weather.

powered by Cumulus v1.9.3 (1059)
Ambient Weather VWS v14.00
Top Contact Website Map Copyright © 2007 - 2019 Foresthillweather.com Never base important decisions on this or any weather information obtained from the Internet